Time,TemperatureF,DewpointF,PressureIn,WindDirection,WindDirectionDegrees,WindSpeedMPH,WindSpeedGustMPH,Humidity,HourlyPrecipIn,Conditions,Clouds,dailyrainin,SoftwareType,DateUTC
2013-07-07 00:01:00,66.9,66.0,29.64,NNW,337,0.0,4.2,95,0.00,,,0.00,Rainwise IP-100,2013-07-07 04:01:00,
2013-07-07 00:06:00,66.7,65.5,29.64,SSW,202,1.2,2.3,95,0.00,,,0.00,Rainwise IP-100,2013-07-07 04:06:00,
2013-07-07 00:11:00,66.7,65.5,29.64,SSW,202,0.0,2.1,95,0.00,,,0.00,Rainwise IP-100,2013-07-07 04:11:00,
2013-07-07 00:16:00,66.6,65.5,29.63,SSW,202,0.0,0.0,96,0.00,,,0.00,Rainwise IP-100,2013-07-07 04:16:00,
2013-07-07 00:21:00,66.4,65.0,29.63,NNW,337,2.8,4.2,96,0.00,,,0.00,Rainwise IP-100,2013-07-07 04:21:00,
2013-07-07 00:26:00,66.2,65.0,29.63,WSW,247,1.6,4.0,96,0.00,,,0.00,Rainwise IP-100,2013-07-07 04:26:00,
2013-07-07 00:31:00,66.2,65.0,29.63,SSW,202,0.0,2.3,96,0.00,,,0.00,Rainwise IP-100,2013-07-07 04:31:00,
2013-07-07 00:36:00,66.1,64.5,29.63,NNW,337,1.4,3.7,96,0.00,,,0.00,Rainwise IP-100,2013-07-07 04:36:00,
2013-07-07 00:41:00,66.0,65.0,29.63,NNE,22,0.0,2.3,97,0.00,,,0.00,Rainwise IP-100,2013-07-07 04:41:00,
2013-07-07 00:46:00,65.9,65.0,29.63,NNE,22,1.9,4.2,97,0.00,,,0.00,Rainwise IP-100,2013-07-07 04:46:00,
2013-07-07 00:52:00,65.7,64.5,29.63,NNW,337,1.2,4.4,97,0.00,,,0.00,Rainwise IP-100,2013-07-07 04:52:00,
2013-07-07 00:57:00,65.5,64.5,29.63,NNW,337,0.0,1.9,97,0.00,,,0.00,Rainwise IP-100,2013-07-07 04:57:00,
2013-07-07 01:02:00,65.3,64.5,29.62,NNW,337,0.0,1.6,97,0.00,,,0.00,Rainwise IP-100,2013-07-07 05:02:00,
2013-07-07 01:07:00,65.3,64.5,29.63,NNW,337,0.0,0.0,97,0.00,,,0.00,Rainwise IP-100,2013-07-07 05:07:00,
2013-07-07 01:12:00,65.2,64.5,29.63,WSW,247,0.0,1.9,98,0.00,,,0.00,Rainwise IP-100,2013-07-07 05:12:00,
2013-07-07 01:17:00,65.0,64.5,29.62,WSW,247,0.0,0.0,98,0.00,,,0.00,Rainwise IP-100,2013-07-07 05:17:00,
2013-07-07 01:22:00,64.9,64.5,29.63,WSW,247,0.0,1.6,98,0.00,,,0.00,Rainwise IP-100,2013-07-07 05:22:00,
2013-07-07 01:27:00,64.8,64.5,29.62,NNW,337,0.0,2.6,98,0.00,,,0.00,Rainwise IP-100,2013-07-07 05:27:00,
2013-07-07 01:32:00,64.8,64.5,29.62,WSW,247,0.0,1.6,98,0.00,,,0.00,Rainwise IP-100,2013-07-07 05:32:00,
2013-07-07 01:37:00,64.8,64.5,29.62,NNW,337,1.6,2.6,99,0.00,,,0.00,Rainwise IP-100,2013-07-07 05:37:00,
2013-07-07 01:42:00,64.7,64.0,29.63,NNW,337,0.0,1.9,99,0.00,,,0.00,Rainwise IP-100,2013-07-07 05:42:00,
2013-07-07 01:47:00,64.6,64.0,29.63,NNW,337,0.0,1.2,99,0.00,,,0.00,Rainwise IP-100,2013-07-07 05:47:00,
2013-07-07 01:52:00,64.5,64.0,29.62,NNW,337,0.0,0.0,99,0.00,,,0.00,Rainwise IP-100,2013-07-07 05:52:00,
2013-07-07 01:57:00,64.5,64.0,29.63,NNW,337,0.0,0.0,99,0.00,,,0.00,Rainwise IP-100,2013-07-07 05:57:00,
2013-07-07 02:02:00,64.4,64.0,29.62,NNW,337,0.0,0.0,99,0.00,,,0.00,Rainwise IP-100,2013-07-07 06:02:00,
2013-07-07 02:08:00,64.3,64.0,29.62,NNW,337,1.6,1.9,99,0.00,,,0.00,Rainwise IP-100,2013-07-07 06:08:00,
2013-07-07 02:13:00,64.1,63.5,29.62,NNW,337,0.0,1.6,99,0.00,,,0.00,Rainwise IP-100,2013-07-07 06:13:00,
2013-07-07 02:18:00,64.0,63.5,29.62,NNW,337,1.2,1.4,99,0.00,,,0.00,Rainwise IP-100,2013-07-07 06:18:00,
2013-07-07 02:23:00,63.8,64.0,29.62,NNW,337,0.0,1.2,100,0.00,,,0.00,Rainwise IP-100,2013-07-07 06:23:00,
2013-07-07 02:28:00,63.7,63.5,29.62,NNW,337,0.0,0.0,100,0.00,,,0.00,Rainwise IP-100,2013-07-07 06:28:00,
2013-07-07 02:33:00,63.8,64.0,29.62,NNW,337,0.0,0.0,100,0.00,,,0.00,Rainwise IP-100,2013-07-07 06:33:00,
2013-07-07 02:38:00,63.9,64.0,29.61,NNW,337,0.0,0.0,100,0.00,,,0.00,Rainwise IP-100,2013-07-07 06:38:00,
2013-07-07 02:43:00,63.8,64.0,29.61,NNW,337,0.0,0.0,100,0.00,,,0.00,Rainwise IP-100,2013-07-07 06:43:00,
2013-07-07 02:48:00,63.7,63.5,29.61,NNW,337,1.6,1.6,100,0.00,,,0.00,Rainwise IP-100,2013-07-07 06:48:00,
2013-07-07 02:53:00,63.6,63.5,29.61,NNW,337,0.0,2.1,100,0.00,,,0.00,Rainwise IP-100,2013-07-07 06:53:00,
2013-07-07 02:58:00,63.7,63.5,29.61,NNW,337,0.0,2.8,100,0.00,,,0.00,Rainwise IP-100,2013-07-07 06:58:00,
2013-07-07 03:03:00,63.8,64.0,29.61,WSW,247,1.2,1.6,100,0.00,,,0.00,Rainwise IP-100,2013-07-07 07:03:00,
2013-07-07 03:08:00,63.9,64.0,29.61,WSW,247,0.0,1.2,100,0.00,,,0.00,Rainwise IP-100,2013-07-07 07:08:00,
2013-07-07 03:13:00,63.8,64.0,29.61,WSW,247,1.2,1.2,100,0.00,,,0.00,Rainwise IP-100,2013-07-07 07:13:00,
2013-07-07 03:18:00,63.8,64.0,29.61,WSW,247,0.0,1.4,100,0.00,,,0.00,Rainwise IP-100,2013-07-07 07:18:00,
2013-07-07 03:24:00,63.8,64.0,29.61,WSW,247,0.0,0.0,100,0.00,,,0.00,Rainwise IP-100,2013-07-07 07:24:00,
2013-07-07 03:29:00,63.7,63.5,29.61,WSW,247,0.0,0.0,100,0.00,,,0.00,Rainwise IP-100,2013-07-07 07:29:00,
2013-07-07 03:34:00,63.7,63.5,29.61,WSW,247,0.0,1.2,100,0.00,,,0.00,Rainwise IP-100,2013-07-07 07:34:00,
2013-07-07 03:39:00,63.6,63.5,29.61,WSW,247,0.0,0.0,100,0.00,,,0.00,Rainwise IP-100,2013-07-07 07:39:00,
2013-07-07 03:44:00,63.6,63.5,29.61,WSW,247,0.0,0.0,100,0.00,,,0.00,Rainwise IP-100,2013-07-07 07:44:00,
2013-07-07 03:49:00,63.6,63.5,29.61,WSW,247,0.0,1.6,100,0.00,,,0.00,Rainwise IP-100,2013-07-07 07:49:00,
2013-07-07 03:54:00,63.6,63.5,29.61,WSW,247,0.0,1.2,100,0.00,,,0.00,Rainwise IP-100,2013-07-07 07:54:00,
2013-07-07 03:59:00,63.5,63.5,29.61,NNW,337,1.4,2.8,100,0.00,,,0.00,Rainwise IP-100,2013-07-07 07:59:00,
2013-07-07 04:04:00,63.4,63.5,29.61,NNW,337,0.0,1.6,100,0.00,,,0.00,Rainwise IP-100,2013-07-07 08:04:00,
2013-07-07 04:09:00,63.3,63.5,29.61,NNW,337,1.6,1.6,100,0.00,,,0.00,Rainwise IP-100,2013-07-07 08:09:00,
2013-07-07 04:14:00,63.3,63.5,29.61,NNW,337,1.6,2.3,100,0.00,,,0.00,Rainwise IP-100,2013-07-07 08:14:00,
2013-07-07 04:19:00,63.4,63.5,29.61,NNW,337,0.0,1.6,100,0.00,,,0.00,Rainwise IP-100,2013-07-07 08:19:00,
2013-07-07 04:24:00,63.5,63.5,29.61,NNW,337,1.9,2.6,100,0.00,,,0.00,Rainwise IP-100,2013-07-07 08:24:00,
2013-07-07 04:29:00,63.6,63.5,29.61,NNW,337,0.0,2.3,100,0.00,,,0.00,Rainwise IP-100,2013-07-07 08:29:00,
2013-07-07 04:34:00,63.6,63.5,29.60,NNW,337,0.0,0.0,100,0.00,,,0.00,Rainwise IP-100,2013-07-07 08:34:00,
2013-07-07 04:40:00,63.7,63.5,29.61,NNW,337,0.0,0.0,100,0.00,,,0.00,Rainwise IP-100,2013-07-07 08:40:00,
2013-07-07 04:45:00,63.7,63.5,29.61,NNW,337,1.9,1.9,100,0.00,,,0.00,Rainwise IP-100,2013-07-07 08:45:00,
2013-07-07 04:50:00,63.8,64.0,29.61,North,360,2.8,3.7,100,0.00,,,0.00,Rainwise IP-100,2013-07-07 08:50:00,
2013-07-07 04:55:00,64.0,64.0,29.61,NNW,337,0.0,3.3,100,0.00,,,0.00,Rainwise IP-100,2013-07-07 08:55:00,
2013-07-07 05:00:00,64.0,64.0,29.61,NNW,337,0.0,0.0,100,0.00,,,0.00,Rainwise IP-100,2013-07-07 09:00:00,
2013-07-07 05:05:00,64.1,64.0,29.61,NNW,337,0.0,0.0,100,0.00,,,0.00,Rainwise IP-100,2013-07-07 09:05:00,
2013-07-07 05:10:00,64.2,64.0,29.61,NNW,337,0.0,0.0,100,0.00,,,0.00,Rainwise IP-100,2013-07-07 09:10:00,
2013-07-07 05:15:00,64.1,64.0,29.61,NNW,337,0.0,0.0,100,0.00,,,0.00,Rainwise IP-100,2013-07-07 09:15:00,
2013-07-07 05:20:00,64.1,64.0,29.61,WSW,247,0.0,0.0,100,0.00,,,0.00,Rainwise IP-100,2013-07-07 09:20:00,
2013-07-07 05:25:00,64.2,64.0,29.61,WSW,247,0.0,0.0,100,0.00,,,0.00,Rainwise IP-100,2013-07-07 09:25:00,
2013-07-07 05:30:00,64.4,64.5,29.61,WSW,247,0.0,1.2,100,0.00,,,0.00,Rainwise IP-100,2013-07-07 09:30:00,
2013-07-07 05:35:00,64.4,64.5,29.61,WSW,247,0.0,0.0,100,0.00,,,0.00,Rainwise IP-100,2013-07-07 09:35:00,
2013-07-07 05:40:00,64.4,64.5,29.61,WSW,247,0.0,0.0,100,0.00,,,0.00,Rainwise IP-100,2013-07-07 09:40:00,
2013-07-07 05:45:00,64.4,64.5,29.61,WSW,247,0.0,0.0,100,0.00,,,0.00,Rainwise IP-100,2013-07-07 09:45:00,
2013-07-07 05:50:00,64.4,64.5,29.61,WSW,247,0.0,0.0,100,0.00,,,0.00,Rainwise IP-100,2013-07-07 09:50:00,
2013-07-07 05:56:00,64.5,64.5,29.61,SW,225,0.0,1.4,100,0.00,,,0.00,Rainwise IP-100,2013-07-07 09:56:00,
2013-07-07 06:01:00,64.6,64.5,29.61,SSW,202,1.2,2.6,100,0.00,,,0.00,Rainwise IP-100,2013-07-07 10:01:00,
2013-07-07 06:06:00,64.6,64.5,29.61,SSW,202,0.0,1.6,100,0.00,,,0.00,Rainwise IP-100,2013-07-07 10:06:00,
2013-07-07 06:11:00,64.7,64.5,29.61,SSW,202,1.2,2.6,100,0.00,,,0.00,Rainwise IP-100,2013-07-07 10:11:00,
2013-07-07 06:16:00,64.8,65.0,29.61,SSW,202,2.3,2.8,100,0.00,,,0.00,Rainwise IP-100,2013-07-07 10:16:00,
2013-07-07 06:21:00,64.9,65.0,29.61,South,180,1.9,2.8,100,0.00,,,0.00,Rainwise IP-100,2013-07-07 10:21:00,
2013-07-07 06:26:00,64.9,65.0,29.61,South,180,1.4,2.1,100,0.00,,,0.00,Rainwise IP-100,2013-07-07 10:26:00,
2013-07-07 06:31:00,65.0,65.0,29.61,South,180,0.0,1.6,100,0.00,,,0.00,Rainwise IP-100,2013-07-07 10:31:00,
2013-07-07 06:36:00,65.2,65.0,29.61,South,180,1.2,1.9,100,0.00,,,0.00,Rainwise IP-100,2013-07-07 10:36:00,
2013-07-07 06:41:00,65.2,65.0,29.61,SSW,202,0.0,2.3,100,0.00,,,0.00,Rainwise IP-100,2013-07-07 10:41:00,
2013-07-07 06:46:00,65.3,65.5,29.61,SSW,202,0.0,1.4,100,0.00,,,0.00,Rainwise IP-100,2013-07-07 10:46:00,
2013-07-07 06:51:00,65.4,65.5,29.61,SSW,202,0.0,0.0,100,0.00,,,0.00,Rainwise IP-100,2013-07-07 10:51:00,
2013-07-07 06:56:00,65.5,65.5,29.61,NNE,22,1.6,2.3,100,0.00,,,0.00,Rainwise IP-100,2013-07-07 10:56:00,
2013-07-07 07:01:00,65.7,65.5,29.61,NNE,22,1.2,2.6,100,0.00,,,0.00,Rainwise IP-100,2013-07-07 11:01:00,
2013-07-07 07:06:00,66.0,66.0,29.61,North,360,1.6,3.0,100,0.00,,,0.00,Rainwise IP-100,2013-07-07 11:06:00,
2013-07-07 07:12:00,66.2,66.3,29.61,North,360,0.0,2.3,100,0.00,,,0.00,Rainwise IP-100,2013-07-07 11:12:00,
2013-07-07 07:17:00,66.3,66.3,29.61,North,360,0.0,1.9,100,0.00,,,0.00,Rainwise IP-100,2013-07-07 11:17:00,
2013-07-07 07:22:00,66.6,66.7,29.61,North,360,0.0,1.2,100,0.00,,,0.00,Rainwise IP-100,2013-07-07 11:22:00,
2013-07-07 07:27:00,66.7,66.3,29.62,SW,225,3.0,3.7,99,0.00,,,0.00,Rainwise IP-100,2013-07-07 11:27:00,
2013-07-07 07:32:00,66.8,66.3,29.62,SW,225,0.0,4.2,99,0.00,,,0.00,Rainwise IP-100,2013-07-07 11:32:00,
2013-07-07 07:37:00,66.9,66.7,29.62,ENE,67,0.0,2.1,99,0.00,,,0.00,Rainwise IP-100,2013-07-07 11:37:00,
2013-07-07 07:42:00,67.1,66.7,29.62,ENE,67,1.9,2.6,99,0.00,,,0.00,Rainwise IP-100,2013-07-07 11:42:00,
2013-07-07 07:47:00,67.1,66.7,29.62,ENE,67,1.2,2.1,99,0.00,,,0.00,Rainwise IP-100,2013-07-07 11:47:00,
2013-07-07 07:52:00,67.2,66.7,29.62,ENE,67,0.0,1.4,98,0.00,,,0.00,Rainwise IP-100,2013-07-07 11:52:00,
2013-07-07 07:57:00,67.6,67.0,29.62,ENE,67,0.0,0.0,98,0.00,,,0.00,Rainwise IP-100,2013-07-07 11:57:00,
2013-07-07 08:02:00,67.8,67.5,29.63,ENE,67,0.0,1.2,98,0.00,,,0.00,Rainwise IP-100,2013-07-07 12:02:00,
2013-07-07 08:07:00,68.1,67.5,29.63,ENE,67,0.0,0.0,99,0.00,,,0.00,Rainwise IP-100,2013-07-07 12:07:00,
2013-07-07 08:12:00,68.4,68.0,29.62,SSE,157,1.2,2.8,99,0.00,,,0.00,Rainwise IP-100,2013-07-07 12:12:00,
2013-07-07 08:17:00,68.8,68.5,29.62,SSE,157,0.0,1.6,99,0.00,,,0.00,Rainwise IP-100,2013-07-07 12:17:00,
2013-07-07 08:22:00,69.1,68.5,29.62,SW,225,0.0,2.8,99,0.00,,,0.00,Rainwise IP-100,2013-07-07 12:22:00,
2013-07-07 08:28:00,69.4,69.0,29.62,SSW,202,0.0,2.3,99,0.00,,,0.00,Rainwise IP-100,2013-07-07 12:28:00,
2013-07-07 08:33:00,70.1,69.7,29.62,SW,225,0.0,2.3,99,0.00,,,0.00,Rainwise IP-100,2013-07-07 12:33:00,
2013-07-07 08:38:00,70.8,70.5,29.62,ENE,67,0.0,1.6,99,0.00,,,0.00,Rainwise IP-100,2013-07-07 12:38:00,
2013-07-07 08:43:00,71.7,71.3,29.62,West,270,0.0,0.0,99,0.00,,,0.00,Rainwise IP-100,2013-07-07 12:43:00,
2013-07-07 08:48:00,72.6,72.3,29.61,SSE,157,0.0,2.3,99,0.00,,,0.00,Rainwise IP-100,2013-07-07 12:48:00,
2013-07-07 08:53:00,73.1,72.7,29.61,ESE,112,0.0,1.9,99,0.00,,,0.00,Rainwise IP-100,2013-07-07 12:53:00,
2013-07-07 08:58:00,73.6,73.3,29.62,SSW,202,0.0,1.6,99,0.00,,,0.00,Rainwise IP-100,2013-07-07 12:58:00,
2013-07-07 09:03:00,74.1,73.0,29.61,SE,135,0.0,0.0,96,0.00,,,0.00,Rainwise IP-100,2013-07-07 13:03:00,
2013-07-07 09:08:00,73.9,71.7,29.61,SW,225,0.0,2.8,92,0.00,,,0.00,Rainwise IP-100,2013-07-07 13:08:00,
2013-07-07 09:13:00,73.8,70.5,29.61,SSE,157,1.9,1.9,89,0.00,,,0.00,Rainwise IP-100,2013-07-07 13:13:00,
2013-07-07 09:18:00,74.3,70.0,29.61,SSE,157,0.0,2.3,86,0.00,,,0.00,Rainwise IP-100,2013-07-07 13:18:00,
2013-07-07 09:23:00,74.3,69.0,29.61,ESE,112,1.4,2.8,83,0.00,,,0.00,Rainwise IP-100,2013-07-07 13:23:00,
2013-07-07 09:28:00,74.1,68.5,29.60,SSE,157,1.6,3.0,82,0.00,,,0.00,Rainwise IP-100,2013-07-07 13:28:00,
2013-07-07 09:33:00,74.4,68.5,29.60,South,180,1.2,3.5,81,0.00,,,0.00,Rainwise IP-100,2013-07-07 13:33:00,
2013-07-07 09:38:00,74.9,69.0,29.60,SSW,202,0.0,2.8,81,0.00,,,0.00,Rainwise IP-100,2013-07-07 13:38:00,
2013-07-07 09:44:00,74.6,68.5,29.60,ENE,67,2.6,3.3,80,0.00,,,0.00,Rainwise IP-100,2013-07-07 13:44:00,
2013-07-07 09:49:00,73.6,67.5,29.59,NE,45,1.9,3.3,81,0.00,,,0.00,Rainwise IP-100,2013-07-07 13:49:00,
2013-07-07 09:54:00,73.5,67.5,29.60,East,90,1.4,2.3,81,0.00,,,0.00,Rainwise IP-100,2013-07-07 13:54:00,
2013-07-07 09:59:00,73.9,68.0,29.60,ESE,112,0.0,1.9,81,0.00,,,0.00,Rainwise IP-100,2013-07-07 13:59:00,
2013-07-07 10:04:00,74.4,68.0,29.60,ESE,112,0.0,1.2,80,0.00,,,0.00,Rainwise IP-100,2013-07-07 14:04:00,
2013-07-07 10:09:00,75.2,68.5,29.60,SSW,202,1.9,1.9,80,0.00,,,0.00,Rainwise IP-100,2013-07-07 14:09:00,
2013-07-07 10:14:00,75.2,68.5,29.60,SSW,202,2.1,3.0,80,0.00,,,0.00,Rainwise IP-100,2013-07-07 14:14:00,
2013-07-07 10:19:00,75.2,69.0,29.60,SSW,202,3.0,3.5,81,0.00,,,0.00,Rainwise IP-100,2013-07-07 14:19:00,
2013-07-07 10:24:00,75.3,69.3,29.60,SW,225,0.0,3.5,81,0.00,,,0.00,Rainwise IP-100,2013-07-07 14:24:00,
2013-07-07 10:29:00,75.7,69.7,29.60,SW,225,0.0,1.6,82,0.00,,,0.00,Rainwise IP-100,2013-07-07 14:29:00,
2013-07-07 10:34:00,76.4,70.5,29.60,SSE,157,1.6,2.6,82,0.00,,,0.00,Rainwise IP-100,2013-07-07 14:34:00,
2013-07-07 10:39:00,76.6,70.5,29.60,SSE,157,0.0,4.2,81,0.00,,,0.00,Rainwise IP-100,2013-07-07 14:39:00,
2013-07-07 10:44:00,76.7,69.7,29.60,SSE,157,0.0,2.8,79,0.00,,,0.00,Rainwise IP-100,2013-07-07 14:44:00,
2013-07-07 10:50:00,76.9,70.0,29.60,NE,45,2.6,2.6,79,0.00,,,0.00,Rainwise IP-100,2013-07-07 14:50:00,
2013-07-07 10:55:00,76.2,69.0,29.60,ENE,67,2.6,3.0,78,0.00,,,0.00,Rainwise IP-100,2013-07-07 14:55:00,
2013-07-07 11:00:00,75.8,68.0,29.60,ENE,67,1.6,3.5,77,0.00,,,0.00,Rainwise IP-100,2013-07-07 15:00:00,
2013-07-07 11:05:00,76.6,69.0,29.59,SSE,157,0.0,2.8,77,0.00,,,0.00,Rainwise IP-100,2013-07-07 15:05:00,
2013-07-07 11:10:00,78.1,70.5,29.60,South,180,1.6,2.6,77,0.00,,,0.00,Rainwise IP-100,2013-07-07 15:10:00,
2013-07-07 11:15:00,78.7,70.5,29.60,SE,135,1.2,2.3,76,0.00,,,0.00,Rainwise IP-100,2013-07-07 15:15:00,
2013-07-07 11:20:00,79.1,70.5,29.60,WSW,247,1.6,2.1,75,0.00,,,0.00,Rainwise IP-100,2013-07-07 15:20:00,
2013-07-07 11:25:00,79.4,70.5,29.60,SSW,202,3.5,3.5,74,0.00,,,0.00,Rainwise IP-100,2013-07-07 15:25:00,
2013-07-07 11:30:00,79.5,70.0,29.59,SSW,202,0.0,4.2,73,0.00,,,0.00,Rainwise IP-100,2013-07-07 15:30:00,
2013-07-07 11:35:00,79.6,69.7,29.59,SSE,157,1.6,4.0,72,0.00,,,0.00,Rainwise IP-100,2013-07-07 15:35:00,
2013-07-07 11:40:00,79.8,69.7,29.59,ENE,67,2.3,3.0,72,0.00,,,0.00,Rainwise IP-100,2013-07-07 15:40:00,
2013-07-07 11:45:00,80.0,70.5,29.59,ESE,112,0.0,3.0,73,0.00,,,0.00,Rainwise IP-100,2013-07-07 15:45:00,
2013-07-07 11:50:00,80.5,71.0,29.59,SSE,157,0.0,3.5,72,0.00,,,0.00,Rainwise IP-100,2013-07-07 15:50:00,
2013-07-07 11:55:00,80.8,70.5,29.59,ENE,67,1.6,3.5,71,0.00,,,0.00,Rainwise IP-100,2013-07-07 15:55:00,
2013-07-07 12:00:00,80.7,70.0,29.59,NNE,22,1.2,2.6,70,0.00,,,0.00,Rainwise IP-100,2013-07-07 16:00:00,
2013-07-07 12:06:00,81.4,69.7,29.59,ESE,112,0.0,2.1,68,0.00,,,0.00,Rainwise IP-100,2013-07-07 16:06:00,
2013-07-07 12:11:00,82.1,70.0,29.59,SSW,202,1.9,2.1,67,0.00,,,0.00,Rainwise IP-100,2013-07-07 16:11:00,
2013-07-07 12:16:00,83.0,70.5,29.58,WNW,292,0.0,2.6,66,0.00,,,0.00,Rainwise IP-100,2013-07-07 16:16:00,
2013-07-07 12:21:00,83.9,71.0,29.59,SSE,157,2.6,3.3,64,0.00,,,0.00,Rainwise IP-100,2013-07-07 16:21:00,
2013-07-07 12:26:00,82.8,69.0,29.58,SSE,157,0.0,3.5,63,0.00,,,0.00,Rainwise IP-100,2013-07-07 16:26:00,
2013-07-07 12:31:00,82.4,69.0,29.58,SSE,157,0.0,1.2,63,0.00,,,0.00,Rainwise IP-100,2013-07-07 16:31:00,
2013-07-07 12:36:00,82.8,69.3,29.58,ESE,112,0.0,0.0,64,0.00,,,0.00,Rainwise IP-100,2013-07-07 16:36:00,
2013-07-07 12:41:00,82.9,70.0,29.58,South,180,1.2,2.1,65,0.00,,,0.00,Rainwise IP-100,2013-07-07 16:41:00,
2013-07-07 12:46:00,83.0,70.5,29.58,South,180,0.0,1.6,66,0.00,,,0.00,Rainwise IP-100,2013-07-07 16:46:00,
2013-07-07 12:51:00,82.9,70.5,29.58,South,180,0.0,1.2,66,0.00,,,0.00,Rainwise IP-100,2013-07-07 16:51:00,
2013-07-07 12:56:00,82.6,70.5,29.58,South,180,0.0,1.4,67,0.00,,,0.00,Rainwise IP-100,2013-07-07 16:56:00,
2013-07-07 13:01:00,82.4,71.0,29.57,South,180,0.0,0.0,68,0.00,,,0.00,Rainwise IP-100,2013-07-07 17:01:00,
2013-07-07 13:06:00,82.4,71.7,29.57,South,180,0.0,1.6,70,0.00,,,0.00,Rainwise IP-100,2013-07-07 17:06:00,
2013-07-07 13:11:00,82.8,72.3,29.58,South,180,0.0,1.4,71,0.00,,,0.00,Rainwise IP-100,2013-07-07 17:11:00,
2013-07-07 13:17:00,83.1,72.7,29.57,SSW,202,0.0,2.3,71,0.00,,,0.00,Rainwise IP-100,2013-07-07 17:17:00,
2013-07-07 13:22:00,83.5,72.7,29.57,SSE,157,1.4,3.3,70,0.00,,,0.00,Rainwise IP-100,2013-07-07 17:22:00,
2013-07-07 13:27:00,83.9,72.7,29.57,SSE,157,0.0,2.1,69,0.00,,,0.00,Rainwise IP-100,2013-07-07 17:27:00,
2013-07-07 13:32:00,84.2,72.3,29.57,SW,225,2.6,3.5,67,0.00,,,0.00,Rainwise IP-100,2013-07-07 17:32:00,
2013-07-07 13:37:00,84.3,71.0,29.57,West,270,0.0,4.0,64,0.00,,,0.00,Rainwise IP-100,2013-07-07 17:37:00,
2013-07-07 13:42:00,84.7,71.3,29.57,South,180,0.0,4.2,64,0.00,,,0.00,Rainwise IP-100,2013-07-07 17:42:00,
2013-07-07 13:47:00,85.5,71.3,29.56,SSE,157,1.2,3.0,63,0.00,,,0.00,Rainwise IP-100,2013-07-07 17:47:00,
2013-07-07 13:52:00,85.5,71.0,29.56,ESE,112,0.0,2.6,62,0.00,,,0.00,Rainwise IP-100,2013-07-07 17:52:00,
2013-07-07 13:57:00,85.6,70.5,29.56,SSW,202,1.2,2.6,61,0.00,,,0.00,Rainwise IP-100,2013-07-07 17:57:00,
2013-07-07 14:02:00,86.3,71.0,29.55,ESE,112,1.2,2.8,60,0.00,,,0.00,Rainwise IP-100,2013-07-07 18:02:00,
2013-07-07 14:07:00,86.3,70.0,29.56,SW,225,1.9,4.0,59,0.00,,,0.00,Rainwise IP-100,2013-07-07 18:07:00,
2013-07-07 14:12:00,86.3,70.0,29.55,SSW,202,0.0,4.0,59,0.00,,,0.00,Rainwise IP-100,2013-07-07 18:12:00,
2013-07-07 14:17:00,86.4,70.5,29.55,SSE,157,0.0,2.8,59,0.00,,,0.00,Rainwise IP-100,2013-07-07 18:17:00,
2013-07-07 14:22:00,86.7,70.0,29.55,SSW,202,0.0,3.5,58,0.00,,,0.00,Rainwise IP-100,2013-07-07 18:22:00,
2013-07-07 14:27:00,87.0,70.0,29.55,SSE,157,1.4,2.3,57,0.00,,,0.00,Rainwise IP-100,2013-07-07 18:27:00,
2013-07-07 14:33:00,86.6,70.0,29.55,SSW,202,1.4,2.8,58,0.00,,,0.00,Rainwise IP-100,2013-07-07 18:33:00,
2013-07-07 14:38:00,86.4,70.5,29.54,SSW,202,1.4,2.6,59,0.00,,,0.00,Rainwise IP-100,2013-07-07 18:38:00,
2013-07-07 14:43:00,86.4,70.5,29.54,SW,225,1.9,3.0,59,0.00,,,0.00,Rainwise IP-100,2013-07-07 18:43:00,
2013-07-07 14:48:00,86.1,70.5,29.54,SSW,202,0.0,2.3,60,0.00,,,0.00,Rainwise IP-100,2013-07-07 18:48:00,
2013-07-07 14:53:00,86.2,71.3,29.53,SSW,202,3.0,4.2,61,0.00,,,0.00,Rainwise IP-100,2013-07-07 18:53:00,
2013-07-07 14:58:00,86.0,71.0,29.54,SSW,202,2.3,4.0,61,0.00,,,0.00,Rainwise IP-100,2013-07-07 18:58:00,
2013-07-07 15:03:00,86.0,70.0,29.53,SSW,202,1.6,3.5,59,0.00,,,0.00,Rainwise IP-100,2013-07-07 19:03:00,
2013-07-07 15:08:00,86.1,70.0,29.53,South,180,0.0,2.1,59,0.00,,,0.00,Rainwise IP-100,2013-07-07 19:08:00,
2013-07-07 15:13:00,86.2,71.0,29.52,SSW,202,1.2,2.1,60,0.00,,,0.00,Rainwise IP-100,2013-07-07 19:13:00,
2013-07-07 15:18:00,86.2,71.3,29.52,SSW,202,0.0,1.4,61,0.00,,,0.00,Rainwise IP-100,2013-07-07 19:18:00,
2013-07-07 15:23:00,85.9,71.0,29.52,SSW,202,1.9,1.9,61,0.00,,,0.00,Rainwise IP-100,2013-07-07 19:23:00,
2013-07-07 15:28:00,84.5,70.0,29.52,SSW,202,1.2,1.9,62,0.00,,,0.00,Rainwise IP-100,2013-07-07 19:28:00,
2013-07-07 15:33:00,83.2,69.3,29.53,SSW,202,0.0,1.4,63,0.00,,,0.00,Rainwise IP-100,2013-07-07 19:33:00,
2013-07-07 15:38:00,82.5,69.0,29.52,SSW,202,0.0,1.2,63,0.00,,,0.00,Rainwise IP-100,2013-07-07 19:38:00,
2013-07-07 15:43:00,82.2,69.0,29.53,SSW,202,1.4,1.4,64,0.00,,,0.00,Rainwise IP-100,2013-07-07 19:43:00,
2013-07-07 15:49:00,81.8,69.3,29.53,SSW,202,0.0,1.6,66,0.00,,,0.00,Rainwise IP-100,2013-07-07 19:49:00,
2013-07-07 15:54:00,81.2,69.3,29.53,SSW,202,0.0,1.2,67,0.00,,,0.00,Rainwise IP-100,2013-07-07 19:54:00,
2013-07-07 15:59:00,80.8,69.0,29.53,SSW,202,0.0,0.0,67,0.00,,,0.00,Rainwise IP-100,2013-07-07 19:59:00,
2013-07-07 16:04:00,80.7,69.7,29.52,SSW,202,0.0,0.0,69,0.00,,,0.00,Rainwise IP-100,2013-07-07 20:04:00,
2013-07-07 16:09:00,80.5,70.5,29.52,WNW,292,0.0,0.0,71,0.00,,,0.00,Rainwise IP-100,2013-07-07 20:09:00,
2013-07-07 16:14:00,80.5,71.0,29.52,WNW,292,0.0,0.0,72,0.00,,,0.00,Rainwise IP-100,2013-07-07 20:14:00,
2013-07-07 16:19:00,80.4,71.7,29.52,NNE,22,0.0,1.6,74,0.00,,,0.00,Rainwise IP-100,2013-07-07 20:19:00,
2013-07-07 16:24:00,80.1,71.7,29.52,ENE,67,1.9,3.0,76,0.00,,,0.00,Rainwise IP-100,2013-07-07 20:24:00,
2013-07-07 16:29:00,80.1,72.3,29.51,ENE,67,1.9,2.8,78,0.00,,,0.00,Rainwise IP-100,2013-07-07 20:29:00,
2013-07-07 16:34:00,80.7,73.3,29.51,ENE,67,2.8,4.0,78,0.00,,,0.00,Rainwise IP-100,2013-07-07 20:34:00,
2013-07-07 16:39:00,81.5,73.7,29.51,ENE,67,1.4,3.3,77,0.00,,,0.00,Rainwise IP-100,2013-07-07 20:39:00,
2013-07-07 16:44:00,82.5,74.0,29.51,ENE,67,3.0,3.0,76,0.00,,,0.00,Rainwise IP-100,2013-07-07 20:44:00,
2013-07-07 16:49:00,82.9,73.0,29.51,NNE,22,3.0,4.0,72,0.00,,,0.00,Rainwise IP-100,2013-07-07 20:49:00,
2013-07-07 16:54:00,83.1,71.0,29.50,SSW,202,1.2,3.7,67,0.00,,,0.00,Rainwise IP-100,2013-07-07 20:54:00,
2013-07-07 16:59:00,84.3,72.3,29.50,SSW,202,0.0,2.1,67,0.00,,,0.00,Rainwise IP-100,2013-07-07 20:59:00,
2013-07-07 17:05:00,85.6,72.7,29.50,SSW,202,0.0,1.4,66,0.00,,,0.00,Rainwise IP-100,2013-07-07 21:05:00,
2013-07-07 17:10:00,86.1,73.3,29.50,SSW,202,1.2,1.2,66,0.00,,,0.00,Rainwise IP-100,2013-07-07 21:10:00,
2013-07-07 17:15:00,86.6,73.7,29.50,SSW,202,1.9,1.9,66,0.00,,,0.00,Rainwise IP-100,2013-07-07 21:15:00,
2013-07-07 17:20:00,86.8,73.3,29.50,SSW,202,0.0,2.3,65,0.00,,,0.00,Rainwise IP-100,2013-07-07 21:20:00,
2013-07-07 17:25:00,87.0,73.7,29.49,SSW,202,1.4,2.1,65,0.00,,,0.00,Rainwise IP-100,2013-07-07 21:25:00,
2013-07-07 17:30:00,87.3,74.0,29.50,SSE,157,1.2,2.6,65,0.00,,,0.00,Rainwise IP-100,2013-07-07 21:30:00,
2013-07-07 17:35:00,87.9,74.3,29.49,SSE,157,0.0,1.6,64,0.00,,,0.00,Rainwise IP-100,2013-07-07 21:35:00,
2013-07-07 17:40:00,88.6,73.7,29.49,SSW,202,1.6,2.1,62,0.00,,,0.00,Rainwise IP-100,2013-07-07 21:40:00,
2013-07-07 17:45:00,89.2,74.0,29.49,SSW,202,0.0,1.9,61,0.00,,,0.00,Rainwise IP-100,2013-07-07 21:45:00,
2013-07-07 17:50:00,89.7,74.0,29.49,SSW,202,1.6,1.9,60,0.00,,,0.00,Rainwise IP-100,2013-07-07 21:50:00,
2013-07-07 17:55:00,89.4,72.7,29.50,SSW,202,0.0,3.0,58,0.00,,,0.00,Rainwise IP-100,2013-07-07 21:55:00,
2013-07-07 18:00:00,88.5,70.5,29.49,SSW,202,0.0,1.4,55,0.00,,,0.00,Rainwise IP-100,2013-07-07 22:00:00,
2013-07-07 18:05:00,86.9,69.3,29.49,SSW,202,0.0,0.0,56,0.00,,,0.00,Rainwise IP-100,2013-07-07 22:05:00,
2013-07-07 18:10:00,85.5,69.0,29.49,SSW,202,0.0,0.0,58,0.00,,,0.00,Rainwise IP-100,2013-07-07 22:10:00,
2013-07-07 18:15:00,84.9,69.7,29.49,SSW,202,0.0,1.2,60,0.00,,,0.00,Rainwise IP-100,2013-07-07 22:15:00,
2013-07-07 18:21:00,84.0,69.3,29.48,SSW,202,0.0,0.0,61,0.00,,,0.00,Rainwise IP-100,2013-07-07 22:21:00,
2013-07-07 18:26:00,83.1,69.0,29.48,SSW,202,0.0,0.0,62,0.00,,,0.00,Rainwise IP-100,2013-07-07 22:26:00,
2013-07-07 18:31:00,82.2,69.0,29.49,SSW,202,1.2,0.0,64,0.00,,,0.00,Rainwise IP-100,2013-07-07 22:31:00,
2013-07-07 18:36:00,81.3,69.7,29.49,WSW,247,0.0,2.3,68,0.00,,,0.00,Rainwise IP-100,2013-07-07 22:36:00,
2013-07-07 18:41:00,80.7,70.5,29.49,WSW,247,1.2,1.4,71,0.00,,,0.00,Rainwise IP-100,2013-07-07 22:41:00,
2013-07-07 18:46:00,80.1,70.5,29.50,WSW,247,0.0,1.4,73,0.00,,,0.00,Rainwise IP-100,2013-07-07 22:46:00,
2013-07-07 18:51:00,79.7,71.3,29.49,WSW,247,0.0,0.0,75,0.00,,,0.00,Rainwise IP-100,2013-07-07 22:51:00,
2013-07-07 18:56:00,79.4,71.7,29.51,WSW,247,0.0,1.4,77,0.00,,,0.00,Rainwise IP-100,2013-07-07 22:56:00,
2013-07-07 19:01:00,79.0,71.7,29.50,WSW,247,0.0,1.4,78,0.00,,,0.00,Rainwise IP-100,2013-07-07 23:01:00,
2013-07-07 19:06:00,78.8,71.7,29.50,WSW,247,0.0,0.0,79,0.00,,,0.00,Rainwise IP-100,2013-07-07 23:06:00,
2013-07-07 19:11:00,78.7,72.3,29.50,NNW,337,0.0,3.0,81,0.00,,,0.00,Rainwise IP-100,2013-07-07 23:11:00,
2013-07-07 19:16:00,78.7,72.7,29.50,NNW,337,0.0,2.8,82,0.00,,,0.00,Rainwise IP-100,2013-07-07 23:16:00,
2013-07-07 19:21:00,78.8,72.7,29.50,NNW,337,1.2,1.4,82,0.00,,,0.00,Rainwise IP-100,2013-07-07 23:21:00,
2013-07-07 19:26:00,79.0,73.0,29.50,NW,315,0.0,3.5,82,0.00,,,0.00,Rainwise IP-100,2013-07-07 23:26:00,
2013-07-07 19:31:00,79.2,73.3,29.50,NNE,22,0.0,3.0,82,0.00,,,0.00,Rainwise IP-100,2013-07-07 23:31:00,
2013-07-07 19:37:00,79.4,73.3,29.50,NNW,337,0.0,2.1,82,0.00,,,0.00,Rainwise IP-100,2013-07-07 23:37:00,
2013-07-07 19:42:00,79.6,73.7,29.51,NNW,337,0.0,3.0,82,0.00,,,0.00,Rainwise IP-100,2013-07-07 23:42:00,
2013-07-07 19:47:00,79.4,73.3,29.51,SSW,202,2.1,2.8,82,0.00,,,0.00,Rainwise IP-100,2013-07-07 23:47:00,
2013-07-07 19:52:00,79.0,73.3,29.50,SSW,202,0.0,2.3,83,0.00,,,0.00,Rainwise IP-100,2013-07-07 23:52:00,
2013-07-07 19:57:00,78.8,73.3,29.50,SSW,202,0.0,0.0,84,0.00,,,0.00,Rainwise IP-100,2013-07-07 23:57:00,
2013-07-07 20:02:00,78.6,73.7,29.50,SSW,202,1.9,2.3,85,0.00,,,0.00,Rainwise IP-100,2013-07-08 00:02:00,
2013-07-07 20:07:00,78.2,73.7,29.50,SSW,202,1.9,2.6,86,0.00,,,0.00,Rainwise IP-100,2013-07-08 00:07:00,
2013-07-07 20:12:00,77.9,73.7,29.50,SSW,202,1.9,2.1,87,0.00,,,0.00,Rainwise IP-100,2013-07-08 00:12:00,
2013-07-07 20:17:00,77.5,73.7,29.50,SW,225,2.1,2.3,88,0.00,,,0.00,Rainwise IP-100,2013-07-08 00:17:00,
2013-07-07 20:22:00,77.1,73.7,29.51,SW,225,1.9,2.8,89,0.00,,,0.00,Rainwise IP-100,2013-07-08 00:22:00,
2013-07-07 20:27:00,76.8,73.7,29.50,SW,225,0.0,2.6,90,0.00,,,0.00,Rainwise IP-100,2013-07-08 00:27:00,
2013-07-07 20:32:00,76.6,73.7,29.51,SSW,202,2.8,3.5,91,0.00,,,0.00,Rainwise IP-100,2013-07-08 00:32:00,
2013-07-07 20:37:00,76.4,73.7,29.51,SSW,202,0.0,3.3,91,0.00,,,0.00,Rainwise IP-100,2013-07-08 00:37:00,
2013-07-07 20:42:00,76.2,73.7,29.51,SSW,202,0.0,1.2,92,0.00,,,0.00,Rainwise IP-100,2013-07-08 00:42:00,
2013-07-07 20:47:00,76.1,73.3,29.51,SSW,202,0.0,0.0,92,0.00,,,0.00,Rainwise IP-100,2013-07-08 00:47:00,
2013-07-07 20:53:00,75.9,73.7,29.51,NNW,337,2.8,2.8,93,0.00,,,0.00,Rainwise IP-100,2013-07-08 00:53:00,
2013-07-07 20:58:00,75.6,73.3,29.52,NNW,337,1.9,3.5,93,0.00,,,0.00,Rainwise IP-100,2013-07-08 00:58:00,
2013-07-07 21:03:00,75.3,73.7,29.52,NNW,337,0.0,2.8,94,0.00,,,0.00,Rainwise IP-100,2013-07-08 01:03:00,
2013-07-07 21:08:00,75.2,73.7,29.52,SW,225,2.6,3.3,95,0.00,,,0.00,Rainwise IP-100,2013-07-08 01:08:00,
2013-07-07 21:13:00,75.1,73.7,29.52,SSW,202,2.8,3.0,95,0.00,,,0.00,Rainwise IP-100,2013-07-08 01:13:00,
2013-07-07 21:18:00,75.0,73.7,29.52,SSW,202,1.6,2.8,95,0.00,,,0.00,Rainwise IP-100,2013-07-08 01:18:00,
2013-07-07 21:23:00,74.8,73.7,29.52,SSW,202,1.4,2.1,96,0.00,,,0.00,Rainwise IP-100,2013-07-08 01:23:00,
2013-07-07 21:28:00,74.7,73.3,29.53,WSW,247,4.2,4.7,95,0.00,,,0.00,Rainwise IP-100,2013-07-08 01:28:00,
2013-07-07 21:33:00,75.0,73.3,29.53,WSW,247,2.3,5.1,94,0.00,,,0.00,Rainwise IP-100,2013-07-08 01:33:00,
2013-07-07 21:38:00,75.3,73.3,29.53,SSW,202,0.0,3.5,93,0.00,,,0.00,Rainwise IP-100,2013-07-08 01:38:00,
2013-07-07 21:43:00,74.9,73.3,29.53,ENE,67,1.2,2.6,94,0.00,,,0.00,Rainwise IP-100,2013-07-08 01:43:00,
2013-07-07 21:48:00,74.4,72.7,29.53,ENE,67,0.0,2.3,94,0.00,,,0.00,Rainwise IP-100,2013-07-08 01:48:00,
2013-07-07 21:53:00,74.2,73.0,29.53,NNE,22,2.3,3.0,95,0.00,,,0.00,Rainwise IP-100,2013-07-08 01:53:00,
2013-07-07 21:58:00,74.0,73.0,29.53,NNE,22,1.4,3.0,96,0.00,,,0.00,Rainwise IP-100,2013-07-08 01:58:00,
2013-07-07 22:03:00,73.8,72.7,29.53,NE,45,4.0,4.0,96,0.00,,,0.00,Rainwise IP-100,2013-07-08 02:03:00,
2013-07-07 22:09:00,73.7,72.7,29.53,NNE,22,0.0,4.4,97,0.00,,,0.00,Rainwise IP-100,2013-07-08 02:09:00,
2013-07-07 22:14:00,73.7,72.7,29.54,NNE,22,1.4,3.5,97,0.06,,,0.01,Rainwise IP-100,2013-07-08 02:14:00,
2013-07-07 22:19:00,73.6,73.0,29.54,NNW,337,1.9,3.3,98,0.06,,,0.01,Rainwise IP-100,2013-07-08 02:19:00,
2013-07-07 22:24:00,73.6,73.0,29.54,NNW,337,0.0,3.0,98,0.00,,,0.01,Rainwise IP-100,2013-07-08 02:24:00,
2013-07-07 22:29:00,73.5,73.0,29.55,WSW,247,3.5,4.9,98,0.06,,,0.02,Rainwise IP-100,2013-07-08 02:29:00,
2013-07-07 22:34:00,73.4,72.7,29.55,SSW,202,2.6,6.3,98,0.06,,,0.02,Rainwise IP-100,2013-07-08 02:34:00,
2013-07-07 22:39:00,73.4,72.7,29.54,NE,45,2.1,3.0,98,0.06,,,0.03,Rainwise IP-100,2013-07-08 02:39:00,
2013-07-07 22:44:00,73.4,72.7,29.54,NNW,337,3.3,4.2,98,0.06,,,0.03,Rainwise IP-100,2013-07-08 02:44:00,
2013-07-07 22:49:00,73.2,73.0,29.54,NNW,337,1.6,4.4,99,0.00,,,0.03,Rainwise IP-100,2013-07-08 02:49:00,
2013-07-07 22:54:00,73.1,72.7,29.55,NNW,337,7.2,7.2,99,0.00,,,0.03,Rainwise IP-100,2013-07-08 02:54:00,
2013-07-07 22:59:00,72.9,72.7,29.54,NNW,337,1.6,8.2,99,0.00,,,0.03,Rainwise IP-100,2013-07-08 02:59:00,
2013-07-07 23:04:00,72.9,72.7,29.54,ENE,67,1.6,2.8,99,0.06,,,0.04,Rainwise IP-100,2013-07-08 03:04:00,
2013-07-07 23:09:00,72.8,72.3,29.54,NNW,337,1.9,3.5,99,0.06,,,0.04,Rainwise IP-100,2013-07-08 03:09:00,
2013-07-07 23:14:00,72.7,72.3,29.54,ENE,67,0.0,3.0,99,0.00,,,0.05,Rainwise IP-100,2013-07-08 03:14:00,
2013-07-07 23:19:00,72.6,72.3,29.54,NW,315,2.1,4.7,99,0.06,,,0.05,Rainwise IP-100,2013-07-08 03:19:00,
2013-07-07 23:25:00,72.5,72.3,29.53,NNW,337,2.8,4.4,99,0.06,,,0.05,Rainwise IP-100,2013-07-08 03:25:00,
2013-07-07 23:30:00,72.4,72.0,29.53,NNW,337,0.0,2.6,99,0.00,,,0.05,Rainwise IP-100,2013-07-08 03:30:00,
2013-07-07 23:35:00,72.3,72.0,29.53,NNW,337,1.4,2.3,99,0.00,,,0.05,Rainwise IP-100,2013-07-08 03:35:00,
2013-07-07 23:40:00,72.2,72.0,29.53,NNW,337,0.0,1.6,99,0.00,,,0.05,Rainwise IP-100,2013-07-08 03:40:00,
2013-07-07 23:45:00,72.1,71.7,29.52,West,270,0.0,2.1,99,0.00,,,0.05,Rainwise IP-100,2013-07-08 03:45:00,
2013-07-07 23:50:00,71.9,71.7,29.53,NNW,337,0.0,3.7,99,0.00,,,0.05,Rainwise IP-100,2013-07-08 03:50:00,
2013-07-07 23:55:00,71.6,71.3,29.53,NNW,337,0.0,0.0,99,0.00,,,0.05,Rainwise IP-100,2013-07-08 03:55:00,